User: anonymous   Login
Location: Unspecified
(0.0000°N, 0.0000°E)
Time: 02:51:15
(UTC+00:00)
Language:

Himawari - Orbit

View from above orbital plane
View from above orbital plane
View from above satellite
View from above satellite

Ground track
Ground track

The orbit data is extracted from the following two-line orbital elements,

1 10143U 77065A   17231.48751485 -.00000130 +00000-0 +00000-0 0  9995
2 10143 013.3361 326.5072 0016985 165.2818 110.5633 00.99247236089225
Epoch (UTC): 19 August 2017 11:42:01
Eccentricity: 0.0016985
inclination: 13.3361°
perigee height: 36004 km
apogee height: 36148 km
right ascension of ascending node: 326.5072°
argument of perigee: 165.2818°
revolutions per day: 0.99247236
mean anomaly at epoch: 110.5633°
orbit number at epoch: 8922

The dashed part of the orbit path shows where the satellite is in the earth's shadow,  

DLR